Location: Lane
(33.5226°N, 79.8788°W)
Time: 04:39:02
(UTC+00:00)

Vanguard 2 - Pass Details

Date: 07 October 2022
Orbit: 553 x 2933 km, 32.9° (Epoch: 26 November)

Event Time Altitude Azimuth Distance (km) Brightness Sun altitude
Rises 17:58:15 0° 259° (W) 4,240 11.6 49.0°
Reaches altitude 10° 18:00:38 10° 259° (W) 3,521 11.3 48.8°
Maximum altitude 18:10:14 85° 172° (S) 2,021 10.7 48.0°
Drops below altitude 10° 18:26:02 10° 86° (E) 5,493 11.7 46.6°
Sets 18:30:46 0° 86° (E) 6,676 12.1 46.1°
